Wind_Speed
19 20 20 20 21 22 22 22 22 22 22 23 23 24 24 25 25 25 25 25 25 26 26 26 26 26 26 26 26 26 27 27 26 26 25 25 25 25
20 21 21 22 23 23 24 24 23 23 23 23 24 24 24 25 25 25 25 25 26 26 26 26 26 26 26 26 26 27 27 27 28 27 26 26 26 25
22 22 23 23 24 25 25 24 24 24 24 24 25 25 25 25 25 25 25 26 26 25 25 25 26 26 26 26 27 28 27 27 27 27 26 26 25 26
23 24 25 25 26 26 25 25 25 26 25 24 25 25 24 25 25 25 26 26 26 26 27 27 26 26 26 26 27 27 27 28 28 28 27 27 26 26
26 26 27 27 26 26 26 26 26 26 26 25 25 25 25 26 26 26 26 26 26 27 27 28 28 28 28 27 27 27 28 28 29 30 29 28 27 27
28 27 28 28 28 28 28 28 27 27 27 26 26 26 27 27 27 27 27 27 27 27 27 27 28 29 29 28 28 27 27 28 28 29 29 29 29 28
30 30 30 30 29 30 30 29 29 28 28 28 27 27 28 28 28 28 28 28 28 28 28 28 29 29 29 29 28 28 28 28 27 27 28 29 29 28
30 30 30 30 30 30 30 30 30 30 29 29 29 29 29 29 29 29 29 29 29 29 29 29 30 29 29 29 29 29 29 29 29 28 28 28 29 29
31 31 31 31 31 31 31 31 30 30 30 30 30 30 30 31 31 31 30 30 30 31 31 31 31 31 30 30 30 29 29 29 29 29 29 29 29 29
32 33 33 32 32 32 32 32 32 31 31 31 31 31 31 32 32 32 32 32 32 32 31 31 31 31 31 31 30 29 30 29 29 29 29 29 29 29
33 34 33 33 32 32 32 32 33 32 32 33 32 32 32 33 33 33 33 33 33 33 33 32 32 32 32 31 30 30 30 29 29 29 29 30 30 30
34 33 33 33 33 34 33 33 33 32 33 33 33 33 33 33 34 34 34 34 34 33 33 33 32 32 31 31 31 30 30 29 29 29 29 29 29 29
35 34 34 34 34 34 33 33 33 33 33 33 33 33 33 34 34 33 34 34 34 33 33 33 32 32 32 31 31 31 30 30 29 29 30 29 29 29
36 35 34 34 34 34 34 33 33 33 34 34 34 35 34 34 35 35 35 34 34 33 33 33 32 32 32 31 31 31 30 29 28 29 29 29 29 29
36 36 36 35 35 35 34 34 34 34 34 34 34 35 35 36 36 35 35 35 34 33 34 33 33 32 32 31 30 30 29 28 29 29 29 29 29 29
37 37 36 36 35 35 35 35 34 34 34 34 34 34 34 35 35 35 35 34 34 34 35 34 34 33 32 31 31 31 30 29 29 29 29 30 30 30
35 35 35 35 35 35 35 34 34 34 34 34 34 34 34 34 34 34 33 33 33 34 34 33 33 33 33 32 32 31 30 30 30 30 31 31 31 30
34 34 34 34 34 34 34 34 33 33 33 34 34 34 34 34 34 34 34 34 34 33 33 33 33 33 33 32 31 31 31 30 30 30 30 30 31 31
33 33 33 33 33 34 34 33 33 33 33 34 34 34 34 34 34 34 34 34 33 33 33 33 33 33 33 33 32 32 31 31 31 31 31 31 31 31
34 33 33 33 33 33 33 33 33 33 33 33 34 33 34 34 34 34 34 34 33 32 32 32 32 32 33 33 33 32 32 32 32 31 31 31 30 30
34 34 33 33 32 32 32 32 32 32 32 32 32 32 33 33 33 33 33 33 33 32 31 31 31 31 31 31 31 31 31 31 31 30 30 30 29 28
34 33 33 32 32 32 32 32 32 31 31 31 30 31 31 32 31 31 31 31 30 30 29 28 28 28 28 29 29 29 29 29 29 29 28 28 28 27
33 33 32 32 31 31 31 31 31 31 31 31 31 30 30 30 30 30 29 28 28 28 27 27 27 27 27 27 27 27 27 27 28 28 28 28 27 27
Wind_Direction
288 287 290 292 293 293 292 290 288 287 285 285 286 285 284 286 285 284 285 284 282 280 278 276 274 273 272 269 268 267 267 266 267 268 269 271 272 273
289 290 292 293 293 292 292 291 288 285 285 284 286 287 288 288 286 285 286 287 285 283 281 278 276 274 272 269 269 270 270 268 268 267 267 269 270 272
288 290 291 292 292 291 290 290 288 287 285 284 285 286 288 288 288 288 287 288 287 285 282 281 278 276 274 272 271 270 270 271 269 268 267 268 269 270
291 291 292 292 291 291 291 291 290 289 288 285 284 285 285 286 287 290 289 289 287 285 283 281 280 278 276 274 273 272 271 271 269 267 266 266 265 268
293 293 293 293 291 291 292 291 291 291 289 287 286 286 286 287 286 286 288 289 288 286 284 282 280 278 277 276 275 274 273 271 270 268 266 264 264 265
293 292 292 292 291 291 290 289 289 289 289 288 287 287 287 287 286 286 287 288 286 285 284 282 279 277 276 275 275 274 274 273 272 270 267 265 265 265
294 294 294 292 290 289 289 288 287 287 288 287 287 287 288 287 287 286 287 288 287 285 285 283 280 277 274 274 273 273 274 273 271 269 267 266 267 267
295 294 293 293 292 290 288 287 286 286 286 285 285 287 288 286 286 287 287 286 285 285 284 284 282 279 275 274 273 273 273 273 270 267 266 268 267 266
292 292 291 291 290 289 287 286 286 286 285 284 284 285 285 285 284 285 285 285 285 285 285 284 283 281 277 276 275 275 274 273 269 267 266 267 267 268
290 289 289 289 287 287 285 285 285 285 284 283 284 285 284 283 283 284 284 283 283 283 283 283 282 280 279 277 277 276 275 274 272 267 264 266 268 268
289 288 288 287 286 286 284 284 283 284 284 284 285 285 284 284 284 283 283 282 282 281 281 281 279 279 279 278 277 277 277 275 273 269 268 267 268 268
291 290 288 286 286 285 283 282 283 283 283 284 283 283 283 283 284 284 284 283 282 281 280 280 280 277 277 276 277 277 275 273 271 270 269 268 269 270
292 290 288 286 286 285 283 283 283 283 283 282 282 282 283 283 283 284 284 283 282 281 279 278 277 277 276 275 275 274 272 271 270 270 270 269 268 268
291 289 288 286 285 285 284 283 282 283 283 282 282 282 282 282 282 282 282 282 281 279 278 277 276 276 276 275 274 274 272 269 268 269 269 269 269 268
290 288 287 286 285 284 284 283 282 283 283 283 282 282 282 283 283 282 281 281 280 278 278 276 275 275 275 276 275 273 271 270 269 268 267 269 270 269
290 289 287 285 285 285 285 284 283 283 283 283 283 282 283 284 284 283 282 282 281 280 278 276 275 275 276 277 276 273 271 270 269 268 268 270 270 271
291 291 290 288 287 286 285 284 284 283 283 283 283 283 283 283 284 283 282 282 282 281 280 279 277 276 277 277 275 272 271 271 271 269 269 270 270 271
292 291 290 289 288 287 286 285 285 284 283 283 283 283 283 283 282 282 281 282 281 280 279 279 277 276 276 277 275 272 270 271 271 272 271 270 269 270
293 291 290 288 287 287 286 285 284 284 284 284 284 283 283 283 282 282 282 282 281 280 279 277 276 275 275 275 274 272 271 271 271 272 273 272 271 269
292 291 290 290 289 288 286 286 286 285 284 284 284 284 283 283 283 282 282 281 280 279 279 278 277 275 275 274 274 272 272 272 272 272 272 272 271 270
292 291 291 291 291 289 288 287 286 286 285 285 285 285 284 284 284 283 282 281 280 279 279 278 278 276 274 273 273 273 272 271 272 272 271 270 270 270
292 292 291 291 291 290 289 288 286 286 286 285 285 285 285 285 285 285 283 282 280 278 276 276 277 276 275 275 274 274 273 272 271 270 270 269 269 271
293 293 292 292 292 292 291 290 289 288 287 287 286 285 285 285 286 286 284 282 280 278 275 276 277 276 277 277 275 274 273 272 271 271 270 270 270 270
Height
5867 5866 5864 5863 5862 5861 5860 5859 5858 5857 5856 5855 5853 5852 5851 5849 5848 5847 5845 5844 5843 5841 5841 5840 5839 5838 5838 5838 5838 5839 5839 5839 5839 5839 5839 5839 5839 5839
5862 5860 5859 5858 5856 5855 5854 5852 5851 5851 5850 5849 5847 5846 5845 5843 5842 5840 5839 5837 5836 5835 5833 5833 5832 5832 5831 5831 5831 5831 5831 5832 5832 5832 5832 5833 5833 5832
5856 5855 5853 5852 5851 5849 5847 5846 5845 5844 5843 5842 5841 5839 5838 5837 5835 5833 5832 5831 5829 5828 5827 5826 5825 5825 5824 5824 5824 5824 5824 5824 5824 5824 5825 5825 5825 5825
5851 5849 5847 5846 5845 5843 5841 5840 5839 5838 5837 5836 5834 5833 5832 5830 5829 5827 5825 5824 5823 5821 5820 5819 5818 5817 5817 5817 5817 5816 5816 5817 5817 5817 5817 5818 5818 5817
5844 5843 5841 5839 5838 5836 5835 5834 5832 5831 5830 5829 5828 5826 5825 5823 5822 5821 5819 5817 5816 5814 5813 5812 5811 5810 5810 5809 5809 5809 5809 5809 5809 5809 5809 5809 5810 5810
5838 5836 5834 5832 5830 5829 5828 5826 5825 5824 5822 5821 5820 5819 5818 5816 5815 5813 5812 5810 5809 5807 5805 5804 5803 5802 5802 5801 5801 5801 5801 5800 5800 5800 5800 5801 5801 5801
5830 5828 5826 5825 5823 5821 5820 5819 5817 5816 5815 5814 5813 5812 5810 5808 5807 5806 5804 5803 5801 5800 5799 5797 5796 5795 5794 5793 5793 5793 5792 5792 5791 5792 5792 5792 5793 5793
5822 5820 5818 5817 5815 5813 5812 5810 5809 5808 5807 5806 5805 5803 5802 5801 5799 5797 5796 5795 5793 5792 5791 5789 5788 5786 5785 5785 5785 5784 5784 5784 5783 5783 5784 5784 5784 5785
5814 5812 5810 5808 5806 5805 5803 5802 5800 5799 5798 5797 5796 5795 5793 5792 5791 5789 5788 5786 5785 5783 5782 5781 5780 5779 5778 5777 5776 5776 5775 5775 5775 5774 5775 5775 5776 5776
5805 5803 5802 5799 5798 5796 5794 5793 5791 5790 5789 5788 5787 5785 5784 5782 5781 5780 5778 5777 5776 5775 5773 5772 5771 5770 5769 5768 5767 5767 5766 5766 5766 5766 5766 5767 5767 5767
5795 5794 5792 5790 5788 5786 5785 5783 5782 5781 5779 5778 5777 5775 5774 5772 5771 5770 5769 5768 5767 5766 5764 5763 5762 5761 5760 5759 5758 5758 5757 5757 5757 5757 5757 5758 5758 5758
5786 5784 5782 5780 5778 5776 5775 5773 5772 5771 5769 5768 5767 5765 5764 5762 5761 5760 5758 5757 5756 5756 5754 5753 5752 5751 5751 5750 5749 5749 5748 5748 5748 5748 5749 5749 5749 5749
5775 5773 5771 5769 5768 5766 5764 5763 5762 5760 5759 5758 5757 5755 5754 5753 5751 5749 5748 5747 5746 5745 5744 5743 5743 5742 5741 5741 5740 5739 5739 5739 5739 5739 5739 5740 5740 5740
5765 5763 5761 5759 5757 5756 5754 5753 5751 5750 5749 5747 5746 5745 5744 5742 5741 5740 5738 5737 5736 5735 5734 5733 5733 5732 5731 5731 5731 5730 5729 5730 5730 5730 5730 5731 5731 5731
5754 5752 5750 5748 5747 5745 5743 5742 5741 5739 5738 5737 5735 5734 5733 5732 5730 5729 5727 5726 5725 5724 5724 5723 5722 5722 5721 5721 5721 5720 5720 5720 5720 5721 5721 5721 5721 5722
5743 5741 5739 5737 5736 5734 5732 5731 5729 5728 5727 5726 5725 5723 5722 5721 5719 5718 5717 5716 5715 5714 5713 5712 5712 5712 5711 5711 5710 5710 5710 5711 5711 5711 5712 5712 5712 5712
5733 5731 5728 5726 5725 5723 5721 5720 5719 5717 5716 5715 5714 5712 5711 5710 5708 5707 5706 5705 5704 5703 5702 5702 5701 5701 5701 5701 5700 5700 5700 5700 5701 5701 5701 5702 5702 5702
5723 5720 5718 5716 5714 5712 5711 5709 5708 5707 5705 5704 5703 5701 5700 5699 5698 5697 5696 5695 5694 5693 5692 5691 5691 5690 5690 5690 5690 5690 5690 5690 5691 5691 5691 5692 5692 5692
5713 5710 5708 5706 5704 5702 5700 5699 5698 5696 5695 5693 5692 5690 5689 5688 5687 5686 5685 5684 5683 5682 5681 5680 5680 5680 5680 5680 5680 5679 5679 5680 5680 5680 5680 5681 5681 5682
5703 5700 5698 5696 5694 5692 5690 5689 5687 5686 5684 5682 5681 5680 5678 5677 5676 5675 5674 5673 5673 5671 5670 5670 5669 5669 5669 5669 5669 5668 5668 5669 5669 5669 5670 5670 5670 5671
5693 5691 5688 5686 5684 5682 5680 5678 5677 5675 5674 5672 5670 5669 5668 5667 5665 5664 5663 5663 5662 5661 5660 5659 5659 5658 5658 5658 5658 5658 5658 5658 5658 5658 5659 5660 5660 5661
5682 5680 5678 5676 5674 5672 5670 5668 5666 5665 5663 5662 5661 5659 5658 5656 5655 5654 5653 5652 5651 5650 5650 5649 5649 5648 5648 5648 5648 5648 5648 5648 5648 5648 5648 5649 5650 5651
5672 5670 5668 5666 5664 5662 5660 5658 5656 5655 5653 5652 5651 5649 5648 5647 5645 5644 5643 5642 5641 5640 5640 5639 5639 5638 5638 5638 5638 5638 5638 5638 5638 5639 5639 5639 5639 5640